Terminal Aerodrome Forecast
Issued by NWS Atlanta, GA

Home | Current Version | Previous Version | Text Only | Print | Product List | Glossary On
Versions: 1 2 3 4 5 6 7 8 9 10 11 12 13 14 15 16 17 18 19 20 21 22 23 24 25 26 27 28 29 30 31 32 33 34 35 36 37 38
000
FTUS42 KFFC 180524
TAFATL
TAF
KATL 180524Z 1806/1912 21012KT P6SM SCT080 BKN250
      TEMPO 1806/1810 SCT010 BKN025
     FM181000 26007KT 3SM BR OVC005
     FM181500 29009KT P6SM OVC008
     FM181700 29009KT P6SM BKN025 BKN040
     FM181900 30008KT P6SM BKN040
     FM190000 31005KT P6SM FEW080 BKN250
     FM191000 05005KT P6SM SCT015 BKN120=

USA.gov is the U.S. government's official web portal to all federal, state and local government web resources and services.